ENT17M EPPO-LDRI

Flight info

Callsign ENT17M
Flight time N/A
Altitude 38000
Route XIDNA DCT MISKA DCT ENORU DCT LOKVU DCT DIPSA DCT GIRDA
Aircraft B38M/M-SDE1FGHILORVWXY/HB1

Departure

Time 2026-04-21 19:54
Airport Poznań-Ławica Airport (EPPO)

Arrival

Time N/A
Airport Rijeka Airport (LDRI)
Time Latitude Longitude Altitude Speed Heading
2026-04-21 19:19 52.41571 16.83055 263 ft 0 kts 193°
2026-04-21 19:42 52.41586 16.83060 295 ft 4 kts 192°
2026-04-21 19:42 52.41612 16.83067 294 ft 4 kts 180°
2026-04-21 19:43 52.41634 16.83058 294 ft 4 kts 126°
2026-04-21 19:43 52.41637 16.83047 293 ft 0 kts 103°
2026-04-21 19:46 52.41636 16.83056 294 ft 4 kts 103°
2026-04-21 19:47 52.41626 16.83131 295 ft 9 kts 103°
2026-04-21 19:47 52.41610 16.83245 294 ft 12 kts 102°
2026-04-21 19:47 52.41590 16.83392 291 ft 15 kts 103°
2026-04-21 19:47 52.41568 16.83569 295 ft 17 kts 93°
2026-04-21 19:48 52.41565 16.83772 291 ft 16 kts 91°
2026-04-21 19:48 52.41565 16.83846 291 ft 4 kts 89°
2026-04-21 19:48 52.41575 16.83897 293 ft 6 kts 57°
2026-04-21 19:48 52.41623 16.83970 293 ft 12 kts 30°
2026-04-21 19:49 52.41686 16.83900 293 ft 14 kts 287°
2026-04-21 19:49 52.41717 16.83736 293 ft 17 kts 287°
2026-04-21 19:49 52.41755 16.83540 291 ft 19 kts 289°
2026-04-21 19:49 52.41797 16.83325 293 ft 21 kts 288°
2026-04-21 19:50 52.41828 16.83165 294 ft 23 kts 288°
2026-04-21 19:50 52.41895 16.82807 291 ft 26 kts 290°
2026-04-21 19:50 52.41953 16.82520 292 ft 27 kts 287°
2026-04-21 19:50 52.42013 16.82216 294 ft 29 kts 288°
2026-04-21 19:51 52.42075 16.81887 294 ft 31 kts 287°
2026-04-21 19:51 52.42142 16.81541 290 ft 33 kts 288°
2026-04-21 19:51 52.42213 16.81176 292 ft 34 kts 286°
2026-04-21 19:51 52.42278 16.80839 293 ft 21 kts 287°
2026-04-21 19:52 52.42312 16.80657 293 ft 9 kts 287°
2026-04-21 19:52 52.42350 16.80566 292 ft 11 kts 336°
2026-04-21 19:52 52.42393 16.80566 293 ft 1 kts 14°
2026-04-21 19:52 52.42418 16.80576 290 ft 7 kts 14°
2026-04-21 19:53 52.42478 16.80605 292 ft 10 kts 20°
2026-04-21 19:53 52.42486 16.80674 291 ft 6 kts 119°
2026-04-21 19:53 52.42463 16.80765 293 ft 22 kts 110°
2026-04-21 19:53 52.42328 16.81466 295 ft 106 kts 107°
2026-04-21 19:54 52.42070 16.82999 390 ft 161 kts 101°
2026-04-21 19:54 52.41766 16.84922 880 ft 194 kts 104°
2026-04-21 19:54 52.41326 16.87001 1902 ft 196 kts 105°
2026-04-21 19:54 52.40747 16.89300 2293 ft 237 kts 109°